• Em Portugal
  • Lista de países
  • Para 7 dias
  • Temperatura da água
  • Mapas de satélite
  • Mapa do tempo
  • Widgets de tempo
  • user-avatar
    Iniciar Sessão

    Previsão horária em Adapazari

    Hoje, 24 Fevereiro, Sábado

    Tempo Temperatura Precipitação Vento Pressão Humidade
    00:00 +6°C° 0 mm 2 m/s 725 mmHg 93%
    01:00 +6°C° 0 mm 2 m/s 725 mmHg 93%
    02:00 +7°C° 0 mm 1 m/s 725 mmHg 93%
    03:00 +7°C° 0 mm 1 m/s 724 mmHg 93%
    04:00 +7°C° 0 mm 1 m/s 724 mmHg 93%
    05:00 +7°C° 0 mm 1 m/s 724 mmHg 93%
    06:00 +7°C° 0 mm 1 m/s 724 mmHg 92%
    07:00 +7°C° 0 mm 1 m/s 724 mmHg 91%
    08:00 +7°C° 0 mm 1 m/s 724 mmHg 91%
    09:00 +9°C° 0 mm 1 m/s 724 mmHg 84%
    10:00 +9°C° 0 mm 2 m/s 723 mmHg 77%
    11:00 +12°C° 0 mm 2 m/s 723 mmHg 70%
    12:00 +12°C° 0 mm 2 m/s 722 mmHg 68%
    13:00 +13°C° 0 mm 2 m/s 722 mmHg 66%
    14:00 +14°C° 0 mm 2 m/s 722 mmHg 64%
    15:00 +13°C° 0,3 mm 2 m/s 721 mmHg 70%
    16:00 +11°C° 0,3 mm 3 m/s 721 mmHg 76%
    17:00 +10°C° 0,3 mm 3 m/s 720 mmHg 82%
    18:00 +9°C° 0,2 mm 3 m/s 720 mmHg 84%
    19:00 +8°C° 0,2 mm 3 m/s 719 mmHg 87%
    20:00 +8°C° 0,2 mm 3 m/s 719 mmHg 90%
    21:00 +7°C° 1,9 mm 3 m/s 719 mmHg 91%
    22:00 +7°C° 1,9 mm 2 m/s 719 mmHg 92%
    23:00 +7°C° 1,9 mm 2 m/s 719 mmHg 94%

    Amanhã, 25 Fevereiro, Domingo

    Tempo Temperatura Precipitação Vento Pressão Humidade
    00:00 +7°C° 1,2 mm 2 m/s 719 mmHg 94%
    01:00 +6°C° 1,2 mm 2 m/s 719 mmHg 94%
    02:00 +5°C° 1,2 mm 3 m/s 720 mmHg 94%
    03:00 +5°C° 1,1 mm 3 m/s 720 mmHg 94%
    04:00 +5°C° 1,1 mm 3 m/s 720 mmHg 94%
    05:00 +4°C° 1,1 mm 3 m/s 720 mmHg 95%
    06:00 +4°C° 1,2 mm 3 m/s 721 mmHg 94%
    07:00 +4°C° 1,2 mm 3 m/s 721 mmHg 94%
    08:00 +4°C° 1,2 mm 3 m/s 722 mmHg 94%
    09:00 +4°C° 0,6 mm 3 m/s 723 mmHg 92%
    10:00 +4°C° 0,6 mm 3 m/s 723 mmHg 91%
    11:00 +4°C° 0,6 mm 3 m/s 724 mmHg 89%
    12:00 +4°C° 0,2 mm 3 m/s 724 mmHg 88%
    13:00 +4°C° 0,2 mm 3 m/s 724 mmHg 87%
    14:00 +4°C° 0,2 mm 3 m/s 724 mmHg 86%
    15:00 +4°C° 0,2 mm 3 m/s 724 mmHg 87%
    16:00 +4°C° 0,2 mm 3 m/s 724 mmHg 88%
    17:00 +3°C° 0,2 mm 3 m/s 725 mmHg 89%
    18:00 +4°C° 0,1 mm 2 m/s 725 mmHg 90%
    19:00 +4°C° 0,1 mm 2 m/s 725 mmHg 91%
    20:00 +4°C° 0,1 mm 2 m/s 725 mmHg 93%
    21:00 +4°C° 0,1 mm 2 m/s 725 mmHg 93%
    22:00 +5°C° 0,1 mm 1 m/s 725 mmHg 93%
    23:00 +5°C° 0,1 mm 1 m/s 725 mmHg 94%

    Depois de amanhã, 26 Fevereiro, Segunda-feira

    Tempo Temperatura Precipitação Vento Pressão Humidade
    00:00 +5°C° 0 mm 1 m/s 725 mmHg 94%
    01:00 +4°C° 0 mm 1 m/s 725 mmHg 94%
    02:00 +3°C° 0 mm 2 m/s 725 mmHg 94%
    03:00 +3°C° 0 mm 2 m/s 724 mmHg 94%
    04:00 +3°C° 0 mm 2 m/s 724 mmHg 93%
    05:00 +3°C° 0 mm 2 m/s 723 mmHg 93%
    06:00 +3°C° 0 mm 2 m/s 723 mmHg 91%
    07:00 +3°C° 0 mm 3 m/s 723 mmHg 89%
    08:00 +3°C° 0 mm 3 m/s 723 mmHg 88%
    09:00 +4°C° 0 mm 3 m/s 723 mmHg 82%
    10:00 +7°C° 0 mm 3 m/s 722 mmHg 76%
    11:00 +7°C° 0 mm 4 m/s 722 mmHg 71%
    12:00 +8°C° 0 mm 4 m/s 721 mmHg 67%
    13:00 +10°C° 0 mm 4 m/s 720 mmHg 64%
    14:00 +10°C° 0 mm 5 m/s 719 mmHg 61%
    15:00 +10°C° 0 mm 5 m/s 719 mmHg 64%
    16:00 +9°C° 0 mm 5 m/s 718 mmHg 67%
    17:00 +9°C° 0 mm 5 m/s 718 mmHg 70%
    18:00 +8°C° 0 mm 4 m/s 717 mmHg 73%
    19:00 +7°C° 0 mm 4 m/s 717 mmHg 76%
    20:00 +6°C° 0 mm 4 m/s 717 mmHg 80%
    21:00 +6°C° 0,1 mm 4 m/s 717 mmHg 79%
    22:00 +8°C° 0,1 mm 3 m/s 716 mmHg 79%
    23:00 +8°C° 0,1 mm 3 m/s 716 mmHg 78%

    27 Fevereiro, Terça-feira

    Tempo Temperatura Precipitação Vento Pressão Humidade
    00:00 +8°C° 0,3 mm 3 m/s 716 mmHg 79%
    01:00 +7°C° 0,3 mm 3 m/s 716 mmHg 80%
    02:00 +7°C° 0,3 mm 3 m/s 716 mmHg 81%
    03:00 +7°C° 0,1 mm 2 m/s 716 mmHg 82%
    04:00 +7°C° 0,1 mm 2 m/s 716 mmHg 84%
    05:00 +7°C° 0,1 mm 2 m/s 716 mmHg 85%
    06:00 +7°C° 0,2 mm 2 m/s 717 mmHg 84%
    07:00 +7°C° 0,2 mm 2 m/s 718 mmHg 84%
    08:00 +8°C° 0,2 mm 2 m/s 718 mmHg 83%
    09:00 +8°C° 0,2 mm 3 m/s 719 mmHg 81%
    10:00 +8°C° 0,2 mm 4 m/s 720 mmHg 78%
    11:00 +8°C° 0,2 mm 5 m/s 721 mmHg 75%
    12:00 +8°C° 0,1 mm 5 m/s 721 mmHg 73%
    13:00 +8°C° 0,1 mm 5 m/s 722 mmHg 70%
    14:00 +8°C° 0,1 mm 5 m/s 722 mmHg 68%
    15:00 +8°C° 0 mm 4 m/s 723 mmHg 70%
    16:00 +9°C° 0 mm 3 m/s 724 mmHg 72%
    17:00 +8°C° 0 mm 2 m/s 724 mmHg 73%
    18:00 +7°C° 0 mm 2 m/s 725 mmHg 78%
    19:00 +8°C° 0 mm 1 m/s 726 mmHg 82%
    20:00 +7°C° 0 mm 1 m/s 726 mmHg 86%
    21:00 +6°C° 0 mm 1 m/s 726 mmHg 86%
    22:00 +6°C° 0 mm 1 m/s 726 mmHg 86%
    23:00 +5°C° 0 mm 2 m/s 726 mmHg 86%

    28 Fevereiro, Quarta-feira

    Tempo Temperatura Precipitação Vento Pressão Humidade
    00:00 +5°C° 0 mm 2 m/s 726 mmHg 85%
    01:00 +5°C° 0 mm 2 m/s 726 mmHg 84%
    02:00 +5°C° 0 mm 2 m/s 726 mmHg 84%
    03:00 +5°C° 0 mm 2 m/s 726 mmHg 83%
    04:00 +5°C° 0 mm 2 m/s 726 mmHg 81%
    05:00 +5°C° 0 mm 2 m/s 726 mmHg 80%
    06:00 +5°C° 0 mm 3 m/s 726 mmHg 78%
    07:00 +7°C° 0 mm 3 m/s 726 mmHg 75%
    08:00 +7°C° 0 mm 3 m/s 726 mmHg 73%
    09:00 +8°C° 0 mm 4 m/s 725 mmHg 66%
    10:00 +11°C° 0 mm 4 m/s 725 mmHg 59%
    11:00 +13°C° 0 mm 4 m/s 725 mmHg 52%
    12:00 +14°C° 0 mm 4 m/s 725 mmHg 50%
    13:00 +15°C° 0 mm 4 m/s 724 mmHg 48%
    14:00 +15°C° 0 mm 4 m/s 724 mmHg 46%
    15:00 +16°C° 0 mm 3 m/s 724 mmHg 51%
    16:00 +14°C° 0 mm 3 m/s 724 mmHg 55%
    17:00 +14°C° 0 mm 2 m/s 724 mmHg 59%
    18:00 +13°C° 0,2 mm 2 m/s 725 mmHg 63%
    19:00 +12°C° 0,2 mm 2 m/s 725 mmHg 67%
    20:00 +10°C° 0,2 mm 2 m/s 725 mmHg 71%
    21:00 +10°C° 1 mm 2 m/s 726 mmHg 76%
    22:00 +9°C° 1 mm 2 m/s 727 mmHg 81%
    23:00 +9°C° 1 mm 2 m/s 727 mmHg 86%

    1 Março, Quinta-feira

    Tempo Temperatura Precipitação Vento Pressão Humidade
    00:00 +8°C° 0,9 mm 2 m/s 728 mmHg 88%
    01:00 +8°C° 0,9 mm 2 m/s 729 mmHg 90%
    02:00 +7°C° 0,9 mm 2 m/s 729 mmHg 92%
    03:00 +7°C° 0,4 mm 2 m/s 730 mmHg 92%
    04:00 +6°C° 0,4 mm 2 m/s 730 mmHg 93%
    05:00 +6°C° 0,4 mm 2 m/s 731 mmHg 93%
    06:00 +6°C° 0 mm 2 m/s 731 mmHg 92%
    07:00 +6°C° 0 mm 2 m/s 732 mmHg 92%
    08:00 +6°C° 0 mm 2 m/s 732 mmHg 91%
    09:00 +7°C° 0 mm 2 m/s 732 mmHg 86%
    10:00 +8°C° 0 mm 2 m/s 732 mmHg 81%
    11:00 +9°C° 0 mm 2 m/s 732 mmHg 77%
    12:00 +10°C° 0 mm 2 m/s 732 mmHg 74%
    13:00 +10°C° 0 mm 2 m/s 732 mmHg 72%
    14:00 +11°C° 0 mm 3 m/s 732 mmHg 70%
    15:00 +12°C° 0 mm 2 m/s 731 mmHg 72%
    16:00 +10°C° 0 mm 2 m/s 731 mmHg 74%
    17:00 +10°C° 0 mm 2 m/s 731 mmHg 76%
    18:00 +9°C° 0 mm 2 m/s 731 mmHg 80%
    19:00 +8°C° 0 mm 2 m/s 731 mmHg 83%
    20:00 +9°C° 0 mm 1 m/s 731 mmHg 87%
    21:00 +9°C° 0 mm 1 m/s 731 mmHg 86%
    22:00 +9°C° 0 mm 1 m/s 731 mmHg 85%
    23:00 +9°C° 0 mm 1 m/s 731 mmHg 85%
    Mostrar mais